Content
SEND FEEDBACK

Daily
Averages
Monthly
Summary
United States of America

ROCK HILL, NEW YORK


Home > North America > United States > New York
Elevation: 1260 feet     Latitude: 41 35N     Longitude: 074 37W

WEATHER
 
SELECT A DAY
Number of Records: 443,913;   Date Range: 1/1/95 - 9/3/14
 
SHARE

PRINT THIS DATA

[ ← Previous Day ]
WEATHER ALMANAC - JANUARY 2, 2014
[ Next Day → ]
[ °C ]   °F
Weather ElementAverageHighLow
Temperature14.3 °F19.4 °F (12:35 am) (6:55 am)
Dewpoint8.2 °F12.2 °F (12:35 am) (7:00 pm)
Humidity76.5 %85 % (5:15 pm)68 % (12:15 pm)
Barometer29.92 in30.17 in (12:35 am)29.68 in (11:15 pm)
Wind Speed12.1 mph17.3 mph (10:15 am)
Wind Gust25.3 mph (9:35 am)
Weather ElementAverage
Visibility4.9 mi
Wind DirectionENE (83.1 °)

Weather ElementTotal
Precipitation---
Heating Degree Days55.3 (Base 65)
Averaged from 71 records on January 2, 2014
WEATHER CONDITIONS BREAKOUT
WIND DIRECTION BREAKOUT
WEATHER BY HOUR - JANUARY 2, 2014
[ °C ]   °F
Local TimeTemperatureDewpointHumidityBarometerVisibilityWind DirectionWind SpeedGust SpeedPrecipitationEventsConditions
12:35 AM19.4 °F12.2 °F74 %30.17 in10.0 miEast (90°)9.2 mphMostly Cloudy
12:55 AM17.6 °F12.2 °F79 %30.16 in10.0 miEast (90°)9.2 mphMostly Cloudy
1:15 AM17.6 °F12.2 °F79 %30.16 in10.0 miEast (100°)11.5 mphOvercast
1:35 AM17.6 °F12.2 °F79 %30.15 in10.0 miEast (100°)9.2 mphOvercast
1:55 AM17.6 °F10.4 °F73 %30.15 in10.0 miEast (90°)11.5 mphOvercast
2:15 AM17.6 °F12.2 °F79 %30.15 in10.0 miEast (80°)12.7 mph17.3 mphOvercast
2:35 AM17.6 °F10.4 °F73 %30.15 in10.0 miEast (80°)11.5 mphOvercast
2:55 AM17.6 °F10.4 °F73 %30.14 in10.0 miEast (80°)12.7 mphOvercast
3:15 AM15.8 °F10.4 °F79 %30.13 in10.0 miEast (80°)11.5 mphOvercast
3:35 AM15.8 °F10.4 °F79 %30.12 in10.0 miEast (80°)12.7 mph19.6 mphOvercast
3:55 AM15.8 °F10.4 °F79 %30.11 in10.0 miEast (90°)12.7 mph19.6 mphOvercast
4:15 AM15.8 °F10.4 °F79 %30.10 in10.0 miEast (90°)10.4 mphOvercast
4:35 AM15.8 °F10.4 °F79 %30.09 in7.0 miEast (90°)12.7 mphOvercast
4:55 AM15.8 °F10.4 °F79 %30.09 in9.0 miEast (80°)11.5 mphOvercast
5:15 AM15.8 °F10.4 °F79 %30.09 in10.0 miEast (90°)9.2 mphOvercast
5:35 AM15.8 °F10.4 °F79 %30.08 in5.0 miEast (90°)10.4 mphOvercast
5:55 AM15.8 °F10.4 °F79 %30.08 in5.0 miEast (90°)9.2 mph18.4 mphOvercast
6:15 AM15.8 °F8.6 °F73 %30.07 in7.0 miEast (90°)11.5 mph19.6 mphOvercast
6:35 AM15.8 °F8.6 °F73 %30.07 in8.0 miEast (80°)9.2 mphOvercast
6:55 AM0.0 °F0.0 °FNorth
7:15 AM15.8 °F10.4 °F79 %30.07 in10.0 miEast (90°)12.7 mph17.3 mphOvercast
7:35 AM15.8 °F8.6 °F73 %30.06 in10.0 miEast (80°)12.7 mph18.4 mphOvercast
7:55 AM15.8 °F8.6 °F73 %30.05 in9.0 miEast (90°)12.7 mph20.7 mphOvercast
8:15 AM15.8 °F8.6 °F73 %30.05 in10.0 miEast (80°)15.0 mph20.7 mphOvercast
8:35 AM15.8 °F8.6 °F73 %30.04 in9.0 miEast (90°)16.1 mph21.9 mphOvercast
8:55 AM15.8 °F8.6 °F73 %30.04 in10.0 miEast (90°)16.1 mph21.9 mphOvercast
9:15 AM15.8 °F8.6 °F73 %30.04 in8.0 miEast (90°)15.0 mph24.2 mphOvercast
9:35 AM15.8 °F8.6 °F73 %30.04 in4.0 miEast (90°)16.1 mph25.3 mphOvercast
9:55 AM15.8 °F8.6 °F73 %30.03 in5.0 miEast (80°)12.7 mph21.9 mphOvercast
10:15 AM15.8 °F8.6 °F73 %30.02 in5.0 miEast (90°)17.3 mph23.0 mphOvercast
10:35 AM15.8 °F8.6 °F73 %30.00 in5.0 miEast (90°)16.1 mph23.0 mphOvercast
10:55 AM15.8 °F8.6 °F73 %29.99 in3.0 miEast (80°)13.8 mph23.0 mphOvercast
11:15 AM15.8 °F8.6 °F73 %29.97 in4.0 miEast (90°)16.1 mph21.9 mphOvercast
11:35 AM15.8 °F8.6 °F73 %29.96 in6.0 miEast (90°)17.3 mph20.7 mphOvercast
11:55 AM15.8 °F8.6 °F73 %29.93 in5.0 miEast (90°)11.5 mph19.6 mphOvercast
12:15 PM15.8 °F6.8 °F68 %29.93 in5.0 miEast (90°)15.0 mph20.7 mphOvercast
12:35 PM15.8 °F8.6 °F73 %29.91 in10.0 miEast (90°)11.5 mph20.7 mphOvercast
12:55 PM15.8 °F6.8 °F68 %29.90 in3.0 miEast (100°)11.5 mph18.4 mphOvercast
1:15 PM15.8 °F8.6 °F73 %29.88 in2.0 miEast (90°)13.8 mph19.6 mphOvercast
1:35 PM15.8 °F8.6 °F73 %29.87 in1.5 miEast (80°)13.8 mph21.9 mphOvercast
1:55 PM15.8 °F8.6 °F73 %29.85 in2.0 miEast (90°)15.0 mph20.7 mphOvercast
2:15 PM15.8 °F8.6 °F73 %29.83 in3.0 miEast (80°)12.7 mph21.9 mphOvercast
2:35 PM15.8 °F8.6 °F73 %29.84 in2.0 miEast (90°)12.7 mph19.6 mphOvercast
2:55 PM15.8 °F8.6 °F73 %29.84 in2.0 miEast (80°)16.1 mph20.7 mphOvercast
3:15 PM14.0 °F8.6 °F79 %29.81 in1.0 miEast (80°)16.1 mph20.7 mphOvercast
3:35 PM14.0 °F8.6 °F79 %29.82 in0.8 miEast (80°)15.0 mph19.6 mphOvercast
3:55 PM14.0 °F8.6 °F79 %29.82 in1.2 miEast (80°)12.7 mph18.4 mphOvercast
4:15 PM14.0 °F8.6 °F79 %29.81 in0.8 miEast (80°)10.4 mph19.6 mphOvercast
4:35 PM14.0 °F8.6 °F79 %29.79 in0.8 miEast (90°)11.5 mph18.4 mphOvercast
4:55 PM14.0 °F8.6 °F79 %29.79 in1.0 miEast (80°)12.7 mph20.7 mphOvercast
5:15 PM12.2 °F8.6 °F85 %29.78 in2.0 miEast (90°)13.8 mph18.4 mphOvercast
5:35 PM12.2 °F6.8 °F79 %29.76 in1.5 miEast (80°)13.8 mph19.6 mphOvercast
5:55 PM12.2 °F8.6 °F85 %29.77 in1.5 miEast (80°)12.7 mph16.1 mphOvercast
6:15 PM12.2 °F6.8 °F79 %29.77 in2.5 miEast (80°)10.4 mph20.7 mphOvercast
6:35 PM12.2 °F6.8 °F79 %29.76 in1.5 miEast (90°)10.4 mph16.1 mphOvercast
6:55 PM12.2 °F6.8 °F79 %29.75 in1.8 miEast (80°)15.0 mph19.6 mphOvercast
7:15 PM12.2 °F6.8 °F79 %29.73 in2.0 miEast (80°)11.5 mph18.4 mphOvercast
7:35 PM12.2 °F6.8 °F79 %29.73 in2.5 miEast (80°)11.5 mph20.7 mphOvercast
7:55 PM12.2 °F6.8 °F79 %29.72 in2.5 miENE (70°)10.4 mphOvercast
8:15 PM12.2 °F6.8 °F79 %29.72 in1.8 miEast (90°)11.5 mph18.4 mphOvercast
8:35 PM10.4 °F5.0 °F79 %29.70 in1.5 miEast (80°)10.4 mph17.3 mphOvercast
8:55 PM10.4 °F5.0 °F79 %29.71 in1.2 miENE (70°)9.2 mphOvercast
9:15 PM10.4 °F3.2 °F73 %29.70 in1.5 miENE (70°)12.7 mph17.3 mphOvercast
9:35 PM10.4 °F5.0 °F79 %29.70 in1.2 miENE (70°)8.1 mphOvercast
9:55 PM10.4 °F5.0 °F79 %29.69 in1.2 miEast (80°)8.1 mphOvercast
10:15 PM10.4 °F5.0 °F79 %29.69 in1.5 miENE (70°)10.4 mphOvercast
10:35 PM10.4 °F5.0 °F79 %29.69 in1.5 miENE (70°)8.1 mphOvercast
10:55 PM10.4 °F5.0 °F79 %29.69 in1.5 miENE (60°)8.1 mph18.4 mphOvercast
11:15 PM10.4 °F5.0 °F79 %29.68 in1.2 miENE (70°)6.9 mphOvercast
11:35 PM10.4 °F5.0 °F79 %29.69 in0.8 miEast (100°)5.8 mphOvercast
11:55 PM10.4 °F5.0 °F79 %29.68 in1.0 miEast (90°)4.6 mphOvercast
Hourly data recorded from KMSV, located miles away from Rock Hill, New York







STORIES FROM OUR PARTNERS